Location: Unspecified
(0.0000°N, 0.0000°E)
Time: 02:49:15
(UTC+00:00)

Vanguard 2 - Pass Details

Date: 18 December 2018
Orbit: 553 x 2939 km, 32.9° (Epoch: 18 March)

Event Time Altitude Azimuth Distance (km) Brightness Sun altitude
Rises 16:06:03 0° 259° (W) 3,607 12.2 25.2°
Reaches altitude 10° 16:09:44 10° 276° (W) 2,316 11.1 24.4°
Maximum altitude 16:13:18 19° 321° (NW) 1,555 9.4 23.6°
Drops below altitude 10° 16:16:17 10° 7° (N) 1,888 9.3 22.9°
Sets 16:18:54 0° 27° (NNE) 2,710 9.9 22.3°
